www.pogodaiklimat.ru

АРХИВ ПОГОДЫ в Волгограде

Время (UTC), дата Ветер
(напр.,м/с)
 
Видим.   Явления Облачность Т
(С)
Тd
(С)
f
(%)
Тe
(С)
Тes
(С)
Комфортность P
(гПа)
Po
(гПа)
Тmin
(С)
Tmax
(С)
R
(мм)
S
(см)
21 9.01 СВ 4 10 км снежные зёрна 10/10 240 м
[St]
-5.6 -6.9 91 -12 -12 по сезону 1022.3 1002.4
00 10.01 С 3 10 км снежные зёрна 10/10 210 м
[St]
-6.7 -7.7 93 -12 -12 по сезону 1022.9 1002.9
03 10.01 СВ 4 4000 м снежные зёрна 10/10 300 м
[St]
-7.5 -9.1 88 -14 -14 по сезону 1023.3 1003.3 -7.5
06 10.01 С 3 4000 м слабый снег 10/6 630 м
[Sc As op]
-7.9 -9.4 89 -14 -14 по сезону 1025.0 1004.9 -8.1
09 10.01 С 4 10 км слабый снег 10/5 240 м
[Frnb As op]
-7.3 -9.4 85 -14 -14 по сезону 1026.0 1005.9
12 10.01 С 2 10 км {снег} 3/3 300 м
[St]
-7.0 -10.1 79 -11 -11 по сезону 1026.4 1006.3
15 10.01 С 1 10 км ясно -8.4 -10.7 83 -11 -11 по сезону 1027.4 1007.2 -6.7
18 10.01 З 1 10 км ясно -11.6 -12.6 92 -14 -14 по сезону 1028.8 1008.3
21 10.01 штиль 0 1100 м в посл. час туман ясно -11.7 -13.0 90 -12 -12 по сезону 1029.6 1009.1
00 11.01 штиль 0 4000 м в посл. час туман ясно -12.1 -13.5 89 -12 -12 по сезону 1029.8 1009.3
03 11.01 Ю 1 500 м переохл. туман ясно -12.7 -14.1 89 -15 -15 по сезону 1029.2 1008.6 -13.1
06 11.01 З 1 10 км {туман} ясно -10.6 -11.9 90 -13 -12 по сезону 1030.2 1009.8 -13.6
09 11.01 С 3 10 км 3/3 200 м
[St]
-8.5 -9.7 91 -14 -13 по сезону 1030.0 1009.7
12 11.01 С 2 10 км 8/8 360 м
[St]
-7.9 -9.9 86 -12 -12 по сезону 1029.6 1009.4
15 11.01 штиль 0 10 км снежные зёрна 10/10 360 м
[St]
-8.0 -10.2 84 -9 -9 по сезону 1029.1 1008.9 -7.5
18 11.01 Ю 4 10 км {снег} 10/10 270 м
[St]
-7.0 -8.7 88 -14 -14 по сезону 1028.9 1008.8
21 11.01 ЮЗ 6 10 км 10/10 210 м
[St]
-6.4 -7.8 90 -15 -15 по сезону 1028.9 1008.8
00 12.01 Ю 3 10 км 10/10 120 м
[St]
-5.0 -5.7 95 -11 -11 по сезону 1027.4 1007.5
03 12.01 Ю 3 10 км 10/10 60 м
[St]
-4.1 -4.5 97 -10 -10 по сезону 1026.9 1007.0 -8.2
06 12.01 Ю 4 4000 м слабая переохл. морось (гололёд) 10/10 60 м
[St]
-3.9 -4.3 97 -10 -10 по сезону 1026.1 1006.3
09 12.01 ЮВ 5 4000 м в посл. час туман {морось} 10/10 60 м
[St]
-4.2 -4.7 96 -11 -11 по сезону 1024.2 1004.4
12 12.01 ЮВ 6 500 м туман {морось} ?/? -3.5 -3.9 97 -11 -11 по сезону 1022.3 1002.6
15 12.01 ЮВ 8-10
{11}
200 м туман ?/? -2.8 -3.1 98 -11 -11 по сезону 1019.7 1000.1 -2.5
18 12.01 ЮВ 8-11
{11}
4000 м дымка {туман} 10/10 150 м
[St]
-0.6 -0.7 99 -9 -9 по сезону 1017.4 998.0
21 12.01 ЮВ 7
{12}
4000 м дымка 10/10 60 м
[St]
-0.7 -0.8 99 -8 -8 по сезону 1016.4 997.0
00 13.01 ЮВ 7
{12}
4000 м дымка 10/10 60 м
[St]
-0.1 -0.2 99 -7 -7 по сезону 1016.1 996.8
03 13.01 ЮВ 9-11
{13}
600 м слабая переохл. морось (гололёд) {туман} туман ?/? -0.1 -0.2 99 -8 -8 по сезону 1015.2 995.9 -2.8
06 13.01 Ю 9-12
{14}
1500 м переохл. дождь (гололёд) {морось, туман} 10/10 60 м
[Frnb Ns]
-0.6 -0.8 99 -9 -9 по сезону 1016.4 997.0
09 13.01 Ю 6
{13}
400 м туман {дождь, морось} ?/? -0.2 -0.3 99 -7 -7 по сезону 1017.5 998.1
12 13.01 ЮЗ 6
{13}
10 км {дождь, морось} 9/9 630 м
[Sc]
+0.1 -2.5 83 -6 -6 по сезону 1019.0 999.6
15 13.01 З 4 10 км 9/9 700 м
[Sc]
-1.7 -4.2 83 -7 -7 по сезону 1021.2 1001.6 +0.5
18 13.01 Ю 3 10 км 9/9 870 м
[Sc]
-3.0 -4.4 90 -8 -8 по сезону 1022.5 1002.8
21 13.01 Ю 2 4000 м дымка ясно -4.4 -4.8 97 -9 -9 по сезону 1023.6 1003.8
00 14.01 ЮВ 3 1200 м дымка 4/4 700 м
[Sc]
-5.3 -5.6 98 -11 -11 по сезону 1024.4 1004.5
03 14.01 Ю 3 100 м туман 5/5 60 м
[St]
-8.6 -9.6 92 -15 -15 по сезону 1025.6 1005.4 -8.6
06 14.01 ЮВ 3 1700 м в посл. час туман 10/10 60 м
[St]
-4.4 -4.9 96 -10 -10 по сезону 1026.3 1006.4 -8.7
09 14.01 ЮВ 3 300 м переохл. туман ?/? -2.4 -2.7 98 -8 -8 по сезону 1025.9 1006.2
12 14.01 ЮВ 5 600 м переохл. туман ?/? -3.1 -3.4 98 -10 -10 по сезону 1026.4 1006.6
15 14.01 ЮВ 7 300 м переохл. туман ?/? -3.7 -4.1 97 -12 -12 по сезону 1026.6 1006.8 -2.0
18 14.01 ЮВ 7 900 м снежные зёрна {туман} ?/? -3.9 -4.3 97 -12 -12 по сезону 1026.6 1006.8
21 14.01 ЮВ 4 10 км {снег, туман} 10/10 150 м
[St]
-4.0 -4.5 96 -10 -10 по сезону 1026.1 1006.3
00 15.01 В 6 1600 м переохл. морось (гололёд) {снег} 10/10 60 м
[St]
-3.5 -3.9 97 -11 -11 по сезону 1026.0 1006.2
03 15.01 ЮВ 7
{10}
300 м переохл. морось (гололёд) {туман} ?/? -4.8 -5.3 96 -13 -13 по сезону 1025.2 1005.3 -5.0
06 15.01 ЮВ 5
{10}
4000 м дымка {морось, туман} 10/10 60 м
[St]
-5.0 -6.2 91 -12 -12 по сезону 1026.7 1006.8 -6.5
09 15.01 В 6
{10}
1600 м снежные зёрна 10/10 60 м
[St]
-5.0 -5.6 96 -13 -13 по сезону 1025.6 1005.7
12 15.01 В 6
{10}
4000 м в посл. час зёрна {снег, туман} 10/10 90 м
[St]
-3.6 -4.0 97 -11 -11 по сезону 1025.3 1005.5
15 15.01 ЮВ 6 10 км 20 10/10 210 м
[St]
-2.9 -3.2 98 -10 -10 по сезону 1026.1 1006.4 -0.3
18 15.01 ЮВ 6 4000 м дымка 10/10 120 м
[St]
-2.7 -3.0 98 -10 -10 по сезону 1025.8 1006.1
21 15.01 ЮВ 7-10
{10}
4000 м дымка 10/10 60 м
[St]
-3.5 -3.9 97 -12 -12 по сезону 1026.4 1006.6
00 16.01 ЮВ 8
{11}
400 м переохл. туман ?/? -3.9 -4.3 97 -13 -13 по сезону 1026.4 1006.6
03 16.01 ЮВ 7
{12}
200 м переохл. туман ?/? -4.4 -4.9 96 -13 -13 по сезону 1026.3 1006.4 -4.5
06 16.01 ЮВ 7-12
{12}
200 м переохл. туман ?/? -5.1 -5.6 96 -14 -14 по сезону 1027.0 1007.1 -5.0
09 16.01 ЮВ 4
{12}
300 м переохл. туман {снег} ?/? -5.9 -6.6 95 -13 -13 по сезону 1027.7 1007.7
12 16.01 В 5
{12}
4000 м в посл. час туман {снег} 10/10 90 м
[St]
-5.6 -6.2 96 -13 -13 по сезону 1027.3 1007.3
15 16.01 В 5 4000 м дымка 10/10 90 м
[St]
-6.4 -7.1 95 -14 -14 по сезону 1027.4 1007.4 -4.3
18 16.01 ЮВ 7 4000 м слабый ливневой снег 10/10 90 м
[Cb calv]
-6.5 -7.2 95 -15 -15 по сезону 1027.5 1007.5

 

Местоположение метеостанции Волгоград (Волгоградская область, Россия): широта 48.78 долгота 44.37 высота над уровнем моря 134 м.

В архиве по умолчанию представлена погода в Волгограде за последнюю неделю. Архивные данные за месяц целиком и за предыдущие месяцы, начиная с января 2011 года, Вы можете получить, выбрав интересующий диапазон дат из раскрывающегося списка и нажав кнопку "Ввод!".

Внимание! Время в таблицах - всемирное. Для получения местного времени необходимо прибавить поправку, которая в Волгограде равна 3 ч.

Ветер - указаны скорость ветра в м/с - средняя за 10 мин, порывы в срок и между сроками (в фигурных скобках) и направление, откуда дует ветер: С - северный, СВ - северо-восточный, В - восточный, ЮВ - юго-восточный, Ю - южный, ЮЗ - юго-западный, З - западный, СЗ - северо-западный.
Видимость - горизонтальная дальность видимости в метрах или километрах. При видимости от 1 до 10 км при отсутствии осадков обычно наблюдается дымка, при ухудшении видимости до 1 км и менее - туман. В сухую погоду видимость может ухудшаться дымом, пылью или мглою.
Явления - указаны атмосферные явления, наблюдавшиеся в срок или в последний час перед сроком; фигурными скобками обозначены явления, наблюдавшиеся между сроками (за 1-3 часа до срока); квадратными скобками обозначены град или гололедные отложения с указанием их диаметра в мм.
Облачность - указаны через наклонную черту общая и нижняя облачность в баллах и высота нижней границы облаков в метрах; квадратными скобками обозначены формы облаков: Ci - перистые, Cs - перисто-слоистые, Cc - перисто-кучевые, Ac - высококучевые, As - высокослоистые, Sc - слоисто-кучевые, Ns - слоисто-дождевые, Cu - кучевые, Cb - кучево-дождевые. Подробнее классификацию облаков см. в Атласе облаков (PDF).
T - Температура воздуха - температура, измеренная на высоте 2 м над землей.
Td - Температура точки росы - температура, при понижении до которой содержащийся в воздухе водяной пар достигнет насыщения.
f - Относительная влажность воздуха - влажноcть воздуха, измеренная на высоте 2 м над землей.
Te - Эффективная температура - температура, которую ощущает одетый по сезону человек в тени. Характеристика душности погоды. При расчете учитывается влияние влажности воздуха и скорости ветра на теплоощущения человека.
Tes - Эффективная температура на солнце - температура, которую ощущает человек, с поправкой на солнечный нагрев. Характеристика знойности погоды. Зависит от высоты солнца над горизонтом, облачности и скорости ветра. Ночью, в пасмурную погоду, а также при ветре 12 м/с и более поправка равна нулю.
P - Атмосферное давление - приведенное к уровню моря атмосферное давление.
Po - Атмосферное давление - измеренное на уровне метеостанции атмосферное давление.
Tmin - Минимальная температура - минимум температуры воздуха на высоте 2 м над землей.
Tmax - Максимальная температура - максимум температуры воздуха на высоте 2 м над землей.
R - Количество осадков - Количество выпавших осадков, мм. При наведении курсора мыши на число - период времени, за который выпало указанное количество осадков.
S - Снежный покров - Высота снежного покрова, см. При наведении курсора мыши на число - состояние снежного покрова и степень покрытия местности в баллах.